Lid_Strength_Index
3 2 1 1 1 1 1 0 0 -0 -0 0 1 0 0 -0 -1 -1 -1 -1 -1 -1 -1 -1 -1 -1 -0 -0 -0 -0 0 0 -0 1 0 0 0 0 -0 -0 -0 -1 -1
3 2 2 1 1 1 1 1 0 0 -0 0 -0 -0 -0 -1 -1 -1 -1 -1 -1 -1 -1 -1 -1 -1 -0 -0 -0 0 1 0 0 2 1 3 2 0 0 -0 -0 -0 -1
4 3 3 2 1 1 1 1 0 0 -0 -0 -0 -0 -1 -0 0 -0 -0 -1 -1 -1 -1 -1 -1 -1 -1 0 0 0 0 2 0 1 2 3 4 2 0 0 -0 0 0
3 3 3 2 2 1 1 0 0 0 -0 -0 0 0 1 2 0 -0 -1 -1 -1 -1 -1 -1 -1 -1 -1 -0 -0 -0 -0 0 3 2 3 3 1 4 5 1 0 -1 1
3 3 3 2 2 1 1 1 0 0 -0 -0 -0 1 1 1 0 -0 0 -1 -1 -1 -1 -1 -1 -1 -1 -1 -1 -0 1 2 2 3 3 2 4 2 4 5 3 0 0
4 3 2 2 2 1 1 1 1 1 -0 -0 0 0 1 1 1 1 1 -0 -0 -1 -1 -1 -1 -1 -1 -0 -1 -1 2 2 2 2 2 3 4 5 3 4 3 2 1
4 3 3 3 2 2 1 1 1 1 0 0 0 0 0 0 1 1 1 1 0 0 -0 -1 -1 -0 -1 -1 -1 -1 0 2 2 2 3 3 2 2 2 2 2 3 1
4 3 3 3 2 2 1 1 1 1 1 0 0 0 -0 1 0 0 0 1 0 0 -1 -1 -0 -1 -1 -1 -1 -1 -0 1 2 4 3 3 2 2 1 1 2 3 2
4 4 3 2 2 2 2 1 1 1 1 1 0 0 0 0 0 -0 -0 0 -0 -0 -1 -1 -0 -1 -1 -1 -1 -0 -0 1 2 4 3 3 2 2 0 -0 0 2 4
5 4 3 2 2 2 1 1 1 1 1 0 0 0 0 -0 -0 -0 0 -0 -0 -0 -0 -0 -0 -0 -0 -0 -0 -0 -0 1 2 3 3 2 2 2 0 -0 -0 -0 1
5 4 3 3 2 2 2 1 1 1 1 1 0 0 0 0 -0 0 -0 -0 -0 -0 -0 -0 -0 -0 -0 -0 -0 -0 -0 0 2 2 4 2 3 3 1 1 -0 -0 0
5 4 3 3 2 2 2 1 1 1 1 0 0 0 0 0 0 0 0 -0 0 -0 -0 -0 -0 -0 -0 -0 0 0 0 0 1 3 3 3 3 3 1 2 0 -0 -0
5 4 4 3 3 3 2 2 1 1 1 0 1 1 0 0 0 0 -0 -0 -0 -0 -0 -0 0 0 -0 0 -0 -0 0 0 0 2 2 3 3 4 3 2 1 0 0
5 4 4 3 3 3 2 2 2 1 1 1 1 1 1 0 0 0 0 0 -0 0 0 0 -0 -0 -0 -0 0 0 0 0 0 2 2 3 3 4 3 2 1 0 1
5 4 4 4 3 3 2 2 2 1 1 1 1 1 1 0 0 0 0 0 0 0 0 0 0 -0 0 0 0 0 0 1 1 3 2 2 4 5 4 2 1 0 1
5 4 4 4 3 3 2 2 2 2 1 1 1 1 1 1 1 0 1 0 0 0 0 0 0 0 0 3 3 1 0 1 1 3 3 3 5 5 5 4 4 1 1
5 4 4 3 3 3 2 3 2 1 2 2 2 1 1 1 1 1 1 1 1 0 1 1 0 1 0 4 6 4 0 1 1 2 4 5 5 4 4 5 5 4 3
5 4 3 3 2 2 2 2 1 1 1 2 1 1 1 1 1 1 1 1 1 1 1 1 1 1 1 6 6 5 0 0 1 2 3 4 4 4 4 4 5 2 1
4 3 2 2 2 2 2 2 2 2 2 2 2 1 1 1 1 1 1 1 1 1 1 1 1 1 2 7 7 5 1 2 2 3 4 4 5 7 7 4 4 5 3
3 3 2 2 2 2 2 2 2 2 2 2 1 1 1 1 1 1 1 1 1 1 1 1 1 3 1 5 6 5 1 3 3 3 4 6 5 8 8 4 4 5 5
3 2 2 2 2 1 1 2 2 2 1 1 1 1 1 1 1 1 1 1 1 1 1 1 1 1 1 3 7 7 1 4 4 4 5 5 9 10 9 6 3 4 4
3 2 2 2 1 1 1 2 2 1 1 1 1 1 1 1 1 1 1 1 1 1 1 1 2 2 1 5 6 7 7 5 2 3 3 5 10 11 10 7 8 8 6
3 2 2 2 2 1 1 2 2 1 1 1 1 1 1 1 1 1 2 2 1 2 2 2 2 2 1 1 6 10 8 7 3 2 5 9 12 11 10 10 9 8 4
3 2 2 3 2 1 1 1 1 1 1 1 1 1 1 2 1 2 3 4 2 2 2 2 3 2 2 2 5 7 7 8 5 8 7 8 8 7 6 7 7 3 3
3 2 2 2 2 1 1 1 1 1 1 1 1 1 1 1 2 5 7 5 8 8 4 3 3 3 3 6 12 9 5 4 6 6 7 8 7 5 5 5 5 3 3
2 2 2 2 2 1 1 1 1 1 1 2 2 2 2 2 2 3 5 11 12 13 14 14 10 4 10 13 15 15 14 12 11 6 7 7 6 5 5 5 6 4 4